• Em Portugal
  • Lista de países
  • Para 7 dias
  • Temperatura da água
  • Mapas de satélite
  • Mapa do tempo
  • Widgets de tempo
  • user-avatar
    Iniciar Sessão

    Previsão horária em Pokhara

    Hoje, 20 Setembro, Quinta-feira

    Tempo Temperatura Precipitação Vento Pressão Humidade
    00:00 +24°C° 0 mm 1 m/s 682 mmHg 72%
    01:00 +24°C° 0 mm 1 m/s 682 mmHg 70%
    02:00 +24°C° 0 mm 1 m/s 682 mmHg 68%
    03:00 +24°C° 0 mm 1 m/s 682 mmHg 66%
    04:00 +24°C° 0 mm 1 m/s 682 mmHg 63%
    05:00 +24°C° 0 mm 2 m/s 682 mmHg 60%
    06:00 +24°C° 0 mm 2 m/s 682 mmHg 58%
    07:00 +26°C° 0 mm 1 m/s 683 mmHg 52%
    08:00 +28°C° 0 mm 1 m/s 683 mmHg 47%
    09:00 +31°C° 0 mm 1 m/s 684 mmHg 41%
    10:00 +32°C° 0 mm 1 m/s 684 mmHg 40%
    11:00 +34°C° 0 mm 2 m/s 684 mmHg 38%
    12:00 +35°C° 0 mm 2 m/s 684 mmHg 36%
    13:00 +35°C° 0 mm 3 m/s 683 mmHg 39%
    14:00 +35°C° 0 mm 3 m/s 682 mmHg 41%
    15:00 +34°C° 0 mm 3 m/s 682 mmHg 44%
    16:00 +32°C° 0.1 mm 2 m/s 682 mmHg 53%
    17:00 +30°C° 0.1 mm 2 m/s 682 mmHg 63%
    18:00 +28°C° 0.1 mm 1 m/s 681 mmHg 72%
    19:00 +27°C° 0.2 mm 1 m/s 682 mmHg 74%
    20:00 +26°C° 0.2 mm 1 m/s 683 mmHg 77%
    21:00 +25°C° 0.2 mm 1 m/s 683 mmHg 79%
    22:00 +25°C° 0.1 mm 1 m/s 683 mmHg 81%
    23:00 +24°C° 0.1 mm 1 m/s 684 mmHg 82%

    Amanhã, 21 Setembro, Sexta-feira

    Tempo Temperatura Precipitação Vento Pressão Humidade
    00:00 +24°C° 0.1 mm 1 m/s 684 mmHg 83%
    01:00 +24°C° 0.1 mm 1 m/s 684 mmHg 83%
    02:00 +24°C° 0.1 mm 1 m/s 683 mmHg 83%
    03:00 +24°C° 0.1 mm 1 m/s 683 mmHg 83%
    04:00 +24°C° 0.2 mm 1 m/s 683 mmHg 82%
    05:00 +24°C° 0.2 mm 1 m/s 683 mmHg 82%
    06:00 +24°C° 0.2 mm 1 m/s 683 mmHg 81%
    07:00 +25°C° 0.6 mm 1 m/s 684 mmHg 79%
    08:00 +26°C° 0.6 mm 1 m/s 684 mmHg 77%
    09:00 +27°C° 0.6 mm 1 m/s 685 mmHg 75%
    10:00 +27°C° 1.4 mm 1 m/s 685 mmHg 77%
    11:00 +27°C° 1.4 mm 1 m/s 685 mmHg 80%
    12:00 +27°C° 1.4 mm 1 m/s 685 mmHg 82%
    13:00 +26°C° 2.4 mm 1 m/s 684 mmHg 82%
    14:00 +26°C° 2.4 mm 1 m/s 684 mmHg 83%
    15:00 +26°C° 2.4 mm 1 m/s 683 mmHg 84%
    16:00 +25°C° 2.3 mm 1 m/s 683 mmHg 85%
    17:00 +25°C° 2.3 mm 1 m/s 683 mmHg 85%
    18:00 +24°C° 2.3 mm 1 m/s 683 mmHg 86%
    19:00 +24°C° 2.3 mm 1 m/s 683 mmHg 86%
    20:00 +24°C° 2.3 mm 1 m/s 684 mmHg 86%
    21:00 +24°C° 2.3 mm 1 m/s 684 mmHg 85%
    22:00 +24°C° 2.3 mm 1 m/s 685 mmHg 85%
    23:00 +24°C° 2.3 mm 1 m/s 685 mmHg 85%

    Depois de amanhã, 22 Setembro, Sábado

    Tempo Temperatura Precipitação Vento Pressão Humidade
    00:00 +24°C° 2.3 mm 1 m/s 685 mmHg 85%
    01:00 +24°C° 2 mm 1 m/s 684 mmHg 85%
    02:00 +24°C° 2 mm 1 m/s 684 mmHg 85%
    03:00 +24°C° 2 mm 1 m/s 684 mmHg 85%
    04:00 +24°C° 1.6 mm 1 m/s 684 mmHg 85%
    05:00 +24°C° 1.6 mm 1 m/s 684 mmHg 85%
    06:00 +24°C° 1.6 mm 1 m/s 684 mmHg 85%
    07:00 +24°C° 2.1 mm 1 m/s 684 mmHg 84%
    08:00 +24°C° 2.1 mm 1 m/s 685 mmHg 84%
    09:00 +25°C° 2.1 mm 1 m/s 685 mmHg 84%
    10:00 +25°C° 1.9 mm 1 m/s 685 mmHg 83%
    11:00 +25°C° 1.9 mm 1 m/s 685 mmHg 83%
    12:00 +25°C° 1.9 mm 1 m/s 685 mmHg 82%
    13:00 +25°C° 1.5 mm 1 m/s 684 mmHg 81%
    14:00 +25°C° 1.5 mm 1 m/s 684 mmHg 80%
    15:00 +25°C° 1.5 mm 1 m/s 683 mmHg 79%
    16:00 +25°C° 1.3 mm 1 m/s 683 mmHg 80%
    17:00 +25°C° 1.3 mm 1 m/s 683 mmHg 81%
    18:00 +25°C° 1.3 mm 1 m/s 683 mmHg 81%
    19:00 +24°C° 0.9 mm 1 m/s 684 mmHg 80%
    20:00 +24°C° 0.9 mm 1 m/s 684 mmHg 78%
    21:00 +24°C° 0.9 mm 1 m/s 685 mmHg 77%
    22:00 +24°C° 0.7 mm 1 m/s 685 mmHg 76%
    23:00 +24°C° 0.7 mm 1 m/s 685 mmHg 75%

    23 Setembro, Domingo

    Tempo Temperatura Precipitação Vento Pressão Humidade
    00:00 +24°C° 0.7 mm 1 m/s 685 mmHg 75%
    01:00 +24°C° 0.5 mm 1 m/s 684 mmHg 74%
    02:00 +24°C° 0.5 mm 1 m/s 684 mmHg 74%
    03:00 +24°C° 0.5 mm 1 m/s 684 mmHg 74%
    04:00 +24°C° 0.2 mm 1 m/s 684 mmHg 74%
    05:00 +24°C° 0.2 mm 1 m/s 684 mmHg 74%
    06:00 +24°C° 0.2 mm 1 m/s 684 mmHg 73%
    07:00 +25°C° 0.1 mm 1 m/s 685 mmHg 71%
    08:00 +27°C° 0.1 mm 1 m/s 685 mmHg 68%
    09:00 +28°C° 0.1 mm 1 m/s 686 mmHg 66%
    10:00 +29°C° 0.2 mm 1 m/s 685 mmHg 64%
    11:00 +30°C° 0.2 mm 2 m/s 685 mmHg 63%
    12:00 +31°C° 0.2 mm 2 m/s 685 mmHg 61%
    13:00 +31°C° 0.5 mm 2 m/s 684 mmHg 63%
    14:00 +31°C° 0.5 mm 2 m/s 684 mmHg 65%
    15:00 +31°C° 0.5 mm 2 m/s 683 mmHg 68%
    16:00 +29°C° 0.7 mm 2 m/s 683 mmHg 73%
    17:00 +28°C° 0.7 mm 1 m/s 683 mmHg 79%
    18:00 +27°C° 0.7 mm 1 m/s 683 mmHg 85%
    19:00 +26°C° 0.6 mm 1 m/s 683 mmHg 86%
    20:00 +26°C° 0.6 mm 1 m/s 683 mmHg 87%
    21:00 +25°C° 0.6 mm 1 m/s 684 mmHg 89%
    22:00 +25°C° 0.6 mm 1 m/s 684 mmHg 88%
    23:00 +25°C° 0.6 mm 1 m/s 684 mmHg 87%

    24 Setembro, Segunda-feira

    Tempo Temperatura Precipitação Vento Pressão Humidade
    00:00 +25°C° 0.6 mm 1 m/s 684 mmHg 87%
    01:00 +25°C° 0.5 mm 1 m/s 683 mmHg 86%
    02:00 +24°C° 0.5 mm 1 m/s 683 mmHg 85%
    03:00 +24°C° 0.5 mm 1 m/s 683 mmHg 85%
    04:00 +24°C° 0.3 mm 1 m/s 683 mmHg 84%
    05:00 +24°C° 0.3 mm 1 m/s 683 mmHg 84%
    06:00 +24°C° 0.3 mm 1 m/s 683 mmHg 84%
    07:00 +25°C° 0.2 mm 1 m/s 683 mmHg 80%
    08:00 +27°C° 0.2 mm 1 m/s 684 mmHg 76%
    09:00 +28°C° 0.2 mm 1 m/s 685 mmHg 72%
    10:00 +29°C° 0.2 mm 1 m/s 684 mmHg 71%
    11:00 +30°C° 0.2 mm 2 m/s 684 mmHg 69%
    12:00 +31°C° 0.2 mm 2 m/s 683 mmHg 67%
    13:00 +31°C° 0.8 mm 2 m/s 683 mmHg 70%
    14:00 +30°C° 0.8 mm 2 m/s 682 mmHg 73%
    15:00 +30°C° 0.8 mm 2 m/s 681 mmHg 76%
    16:00 +29°C° 1.1 mm 2 m/s 681 mmHg 81%
    17:00 +28°C° 1.1 mm 1 m/s 681 mmHg 86%
    18:00 +27°C° 1.1 mm 1 m/s 681 mmHg 91%
    19:00 +27°C° 0.6 mm 1 m/s 682 mmHg 92%
    20:00 +26°C° 0.6 mm 1 m/s 682 mmHg 93%
    21:00 +26°C° 0.6 mm 1 m/s 683 mmHg 94%
    22:00 +25°C° 0.4 mm 1 m/s 683 mmHg 93%
    23:00 +25°C° 0.4 mm 1 m/s 683 mmHg 92%

    25 Setembro, Terça-feira

    Tempo Temperatura Precipitação Vento Pressão Humidade
    00:00 +23°C° 0.4 mm 0 m/s 683 mmHg 91%
    01:00 +23°C° 0.1 mm 0 m/s 682 mmHg 90%
    02:00 +23°C° 0.1 mm 0 m/s 682 mmHg 89%
    03:00 +23°C° 0.1 mm 0 m/s 682 mmHg 89%
    04:00 +22°C° 0.1 mm 0 m/s 682 mmHg 88%
    05:00 +22°C° 0.1 mm 0 m/s 682 mmHg 88%
    06:00 +22°C° 0.1 mm 0 m/s 682 mmHg 88%
    07:00 +25°C° 0 mm 1 m/s 682 mmHg 85%
    08:00 +27°C° 0 mm 1 m/s 683 mmHg 81%
    09:00 +28°C° 0 mm 1 m/s 683 mmHg 78%
    10:00 +29°C° 0.2 mm 1 m/s 683 mmHg 76%
    11:00 +29°C° 0.2 mm 2 m/s 683 mmHg 73%
    12:00 +30°C° 0.2 mm 2 m/s 682 mmHg 71%
    13:00 +30°C° 0.5 mm 2 m/s 682 mmHg 73%
    14:00 +30°C° 0.5 mm 2 m/s 681 mmHg 75%
    15:00 +29°C° 0.5 mm 2 m/s 680 mmHg 77%
    16:00 +29°C° 1.1 mm 2 m/s 680 mmHg 82%
    17:00 +28°C° 1.1 mm 1 m/s 680 mmHg 87%
    18:00 +27°C° 1.1 mm 1 m/s 680 mmHg 92%
    19:00 +26°C° 0.8 mm 1 m/s 681 mmHg 93%
    20:00 +26°C° 0.8 mm 1 m/s 681 mmHg 94%
    21:00 +25°C° 0.8 mm 1 m/s 682 mmHg 94%
    22:00 +25°C° 0.4 mm 1 m/s 681 mmHg 94%
    23:00 +25°C° 0.4 mm 1 m/s 681 mmHg 93%
    Mostrar mais